Location: Pedimozza
(42.0500°N, 9.3500°E)
Time: 00:49:49
(UTC+00:00)

Cosmos 2098 Rocket - Pass Details

Date: 19 August 2019
Orbit: 367 x 1192 km, 82.9° (Epoch: 23 October)

Event Time Altitude Azimuth Distance (km) Brightness Sun altitude
Rises 20:03:48 0° 2° (N) 2,782 6.9 -18.2°
Reaches altitude 10° 20:05:55 10° 11° (NNE) 1,995 6.0 -18.6°
Maximum altitude 20:10:04 37° 80° (E) 1,115 4.0 -19.2°
Enters shadow 20:10:53 35° 102° (ESE) 1,195 4.0 -19.3°
